This demonstration page uses our WeatherBlox Daily Observations layout. Learn more.

Left ArrowRight Arrow

34.16533, -84.80231

Hourly Observations for August 29, 2017

Temp ( °F °C ) Dew Point ( °F °C ) Humidity (%) Winds ( mph kmh ) Pressure ( in mb ) Visibility ( mi km ) Precip ( " mm )
12:53 am 00:53 Clear 69 20.6 60 15.6 73 73 Calm 29.97 1015 10 16 0.00 0.00
1:53 am 01:53 Clear 67 19.4 62 16.7 84 84 Calm 29.96 1015 10 16 0.00 0.00
2:53 am 02:53 Cloudy 66 18.9 63 17.2 90 90 Calm 29.96 1014 10 16 0.00 0.00
3:53 am 03:53 Cloudy 67 19.4 62 16.7 84 84 Calm 29.96 1015 10 16 0.00 0.00
4:53 am 04:53 Mostly Cloudy 65 18.3 63 17.2 93 93 Calm 29.95 1014 10 16 0.00 0.00
5:53 am 05:53 Clear 66 18.9 63 17.2 90 90 Calm 29.95 1014 10 16 0.00 0.00
6:53 am 06:53 Clear 62 16.7 61 16.1 96 96 Calm 29.97 1015 10 16 0.00 0.00
7:53 am 07:53 Mostly Cloudy 64 17.8 63 17.2 96 96 Calm 29.99 1016 10 16 0.00 0.00
8:53 am 08:53 Mostly Sunny 70 21.1 63 17.2 79 79 Calm 30.00 1016 10 16 0.00 0.00
9:53 am 09:53 Sunny 73 22.8 63 17.2 71 71 VRB 3 6 30.00 1016 10 16 0.00 0.00
10:53 am 10:53 Mostly Sunny 76 24.4 64 17.8 67 67 ESE 7 11 30.00 1016 10 16 0.00 0.00
11:53 am 11:53 Cloudy 79 26.1 64 17.8 60 60 VRB 6 9 30.00 1016 10 16 0.00 0.00
12:53 pm 12:53 Cloudy 78 25.6 64 17.8 62 62 Calm 29.99 1016 10 16 0.00 0.00
1:53 pm 13:53 Mostly Sunny 83 28.3 64 17.8 53 53 ENE 3 6 29.97 1015 10 16 0.00 0.00
2:53 pm 14:53 Mostly Cloudy 82 27.8 63 17.2 53 53 SSE 3 6 29.96 1014 10 16 0.00 0.00
3:53 pm 15:53 Mostly Sunny 84 28.9 63 17.2 49 49 VRB 3 6 29.94 1014 10 16 0.00 0.00
4:53 pm 16:53 Mostly Sunny 83 28.3 64 17.8 53 53 S 3 6 29.94 1014 10 16 0.00 0.00
5:53 pm 17:53 Sunny 82 27.8 64 17.8 55 55 S 6 9 29.95 1014 10 16 0.00 0.00
6:53 pm 18:53 Sunny 80 26.7 67 19.4 64 64 S 3 6 29.95 1014 10 16 0.00 0.00
7:53 pm 19:53 Sunny 78 25.6 67 19.4 69 69 SSW 3 6 29.96 1014 10 16 0.00 0.00
8:53 pm 20:53 Clear 75 23.9 69 20.6 82 82 Calm 29.96 1015 10 16 0.00 0.00
9:53 pm 21:53 Clear 73 22.8 69 20.6 87 87 Calm 29.97 1015 10 16 0.00 0.00
10:53 pm 22:53 Clear 71 21.7 69 20.6 94 94 Calm 29.97 1015 10 16 0.00 0.00
11:53 pm 23:53 Mostly Cloudy 72 22.2 69 20.6 91 91 Calm 29.98 1015 10 16 0.00 0.00

Powered by AerisWeather